Regional Weather Roundup
Issued by NWS

Home | Current Version | Previous Version | Graphics & Text | Print | Product List | Glossary On
Versions: 1 2 3 4 5 6 7 8 9 10 11 12 13 14 15 16 17 18 19 20 21 22 23 24 25 26 27 28 29 30 31 32 33 34 35 36 37 38 39 40 41 42 43 44 45 46 47 48 49 50
000
ASUS43 KDMX 032007
RWRIA

WEATHER ROUNDUP FOR IOWA
NATIONAL WEATHER SERVICE DES MOINES IA
200 PM CST TUE MAR 03 2015

NOTE: "FAIR" INDICATES FEW OR NO CLOUDS BELOW 12,000 FEET WITH NO
SIGNIFICANT WEATHER AND/OR OBSTRUCTIONS TO VISIBILITY.

* - THESE STATIONS ARE NOT NWS STATIONS...THUS NOT UNDER NWS
QUALITY CONTROL.  THEY ALSO DO NOT REPORT WEATHER SUCH
AS PRECIPITATION OR FOG.

IAZ001>003-012>014-020>022-031>034-043>046-032100-
   NORTHWEST IOWA

CITY           SKY/WX    TMP DP  RH WIND       PRES   REMARKS
CARROLL *      CLOUDY    32  27  80 NW24G32   29.80R WCI  19
CHEROKEE *     CLOUDY    27  19  74 NW21G30   29.85R WCI  13
DENISON *      CLOUDY    30  25  80 NW24      29.82R WCI  16
LE MARS *      CLOUDY    27  18  69 NW22G30   29.90R WCI  12
ORANGE CITY *  PTSUNNY   27  16  63 NW18G24   29.87R WCI  13
SHELDON *      LGT SNOW  23  16  74 NW25G36   29.85R WCI   7
SIOUX CITY     CLOUDY    29  16  58 NW26G37   29.89  WCI  14
SPENCER        CLOUDY    26  17  68 NW29G38   29.82  WCI  10
STORM LAKE *   CLOUDY    28  21  74 NW23G35   29.82R WCI  14
$$

IAZ055>058-069>071-079>083-090>094-032100-
   SOUTHWEST IOWA

CITY           SKY/WX    TMP DP  RH WIND       PRES   REMARKS
ATLANTIC *     CLOUDY    34  28  80 NW17      29.81S WCI  23
AUDUBON *      SUNNY     34  27  75 NW16G23   29.80S WCI  23
CLARINDA *     CLOUDY    36  30  80 NW15G22   29.84R WCI  26
COUNCIL BLFS * CLOUDY    30  27  86 NW22G30   29.83S WCI  17
CRESTON *      CLOUDY    34  30  86 NW18G28   29.79S WCI  23
HARLAN  *      CLOUDY    30  30 100 NW24G30   29.86R WCI  16
LAMONI         CLOUDY    34  30  85 NW14      29.78  WCI  25
RED OAK *      CLOUDY    34  28  80 NW17G26   29.83S WCI  23
SHENANDOAH *   CLOUDY    36  28  75 NW17      29.84R WCI  25
$$

IAZ047>049-059>061-072>074-084-032100-
   CENTRAL IOWA

CITY           SKY/WX    TMP DP  RH WIND       PRES   REMARKS
AMES           CLOUDY    34  25  69 NW20G26   29.76  WCI  23
ANKENY *       CLOUDY    34  28  80 NW14G21   29.76S WCI  24
CHARITON *     CLOUDY    34  30  86 NW18G24   29.76S WCI  23
DES MOINES     CLOUDY    35  26  69 N17G26    29.77R WCI  25
GRINNELL*      CLOUDY    32  28  86 NW20G26   29.74S WCI  20
KNOXVILLE *    CLOUDY    34  28  80 NW18      29.74S WCI  23
MARSHALLTOWN   CLOUDY    32  26  78 NW21      29.73R WCI  20
PELLA *        CLOUDY    36  32  87 NW16G23   29.77R WCI  26
PERRY *          N/A     34  28  80 NW15      29.77F WCI  24
$$

IAZ004>006-015-016-023>025-035-036-032100-
   NORTH CENTRAL IOWA

CITY           SKY/WX    TMP DP  RH WIND       PRES   REMARKS
ALGONA *       CLOUDY    27 N/A N/A N26G40    29.77S WCI  11
CLARION *      CLOUDY    28  27  93 NW24G36   29.75R WCI  14
ESTHERVILLE    LGT SNOW  23  17  78 NW28G36   29.79  WCI   6
FORT DODGE *   CLOUDY    28  21  74 NW14G25   29.78R WCI  17
MASON CITY     CLOUDY    29  23  78 NW23G32   29.73R WCI  15
FOREST CITY *  CLOUDY    28  19  69 NW17G30   29.73R WCI  16
IOWA FALLS *   CLOUDY    32  27  80 NW17      29.73F WCI  21
$$

IAZ007>011-017>019-026>030-037>042-050>054-066-032100-
   NORTHEAST IOWA

CITY           SKY/WX    TMP DP  RH WIND       PRES   REMARKS
CEDAR RAPIDS   CLOUDY    33  29  85 NW20      29.69  WCI  21
CHARLES CITY * CLOUDY    32  27  80 NW22      29.70S WCI  19
CLINTON *      CLOUDY    34  30  86 W18       29.70R WCI  23
DECORAH *      CLOUDY    30  25  80 NW12G21   29.66R WCI  21
DUBUQUE          N/A    N/A N/A N/A MISG      29.65S
MONTICELLO *   CLOUDY    32  32 100 NW17      29.67S WCI  21
OELWEIN *      CLOUDY    30  27  86 NW21      29.68S WCI  17
WATERLOO       CLOUDY    31  25  78 NW21G28   29.70R WCI  18
$$

IAZ064-065-067-068-078-032100-
   EAST CENTRAL IOWA

CITY           SKY/WX    TMP DP  RH WIND       PRES   REMARKS
DAVENPORT      CLOUDY    33  30  88 W18       29.70R WCI  22
IOWA CITY      CLOUDY    35  31  85 W15       29.73R WCI  25
MT. PLEASANT * CLOUDY    36  32  87 W14G25    29.74R WCI  27
MUSCATINE *    CLOUDY    36  32  87 W16       29.72S WCI  26
QUAD CITIES    CLOUDY    34  31  88 W17G23    29.70  WCI  23
$$

IAZ062-063-075>077-085>089-095>099-032100-
   SOUTHEAST IOWA

CITY           SKY/WX    TMP DP  RH WIND       PRES   REMARKS
BURLINGTON     CLOUDY    37  35  92 W9        29.72S WCI  30
FAIRFIELD *    CLOUDY    36  32  87 NW14G20   29.75R WCI  27
FORT MADISON * CLOUDY    36  36 100 W10       29.74S FOG     WCI  28
KEOKUK *       CLOUDY    37  36  93 W14       29.74S WCI  29
OSKALOOSA *    CLOUDY    34  30  86 NW17      29.74S WCI  23
CENTERVILLE *  MOSUNNY   36  36 100 NW15      29.76F WCI  26
OTTUMWA        CLOUDY    36  31  82 NW18      29.75R WCI  26
WASHINGTON *   CLOUDY    36  36 100 W13       29.72S WCI  27
$$

ABBREVIATIONS USED IN REMARKS
   TC - TEMPERATURES IN CELSIUS
  WCI - WIND CHILL INDEX
   HX - HEAT INDEX
  VSB - VISIBILITY
$$




USA.gov is the U.S. government's official web portal to all federal, state and local government web resources and services.